sat.trackr.live / text

‹ back to catalog

STARLINK-11639 [DTC]

NORAD 63189 · 2025-048G

PAYLOAD ACTIVE UNKNOWN

§ Identity

Operator
Country
US
Launch date
2025-03-13
Launch site
AFETR
Launch vehicle
Mass (kg)
RCS (m²)

Purposes: comms

External: N2YO · Heavens-Above · Gunter

§ Orbital elements

Epoch: 2026-09-20T21:38:04.384896Z

Period
91.67 min
Inclination
42.9998°
Eccentricity
0.0001796
Mean motion
15.70797886 rev/d
Perigee alt
355.4 km
Apogee alt
357.8 km
Semi-major
6,734.8 km
B*
1.3885e-3
RAAN
223.1582°
Arg perigee
255.3550°
Mean anomaly
104.7119°
Rev number
8,922

§ Raw data

STARLINK-11639 [DTC]1 63189U 25048G   26263.90143964  .00181330  00000+0  13885-2 0  99932 63189  42.9998 223.1582 0001796 255.3550 104.7119 15.70797886 89223

JSON: /api/v1/satellites/63189 · /tle

For live sub-satellite position, see the globe view (requires WebGL).

§ Visibility from observer

Set your observer location to see the next 7 days of passes ≥ 10°. The values pass through the URL so the page stays shareable.

No JS? Fill the form by hand. The geolocation button needs JavaScript.